Muncie, IN

8:38 AM EST on January 24, 2017 (GMT -0500)
Delaware County-Johnson

Weather History for KMIE - October, 2012

Change the Weather History Date:

Thursday, October 25, 2012

  Actual Average Record
Temperature  
Mean Temperature 68 °F 51 °F  
Max Temperature 76 °F 61 °F 82 °F (1963)
Min Temperature 59 °F 41 °F 25 °F (1981)
Degree Days  
Heating Degree Days 0 14  
Month to date heating degree days 274 272  
Since 1 July heating degree days 399 373  
Cooling Degree Days 3 0  
Month to date cooling degree days 8 13  
Year to date cooling degree days 1149 952  
Growing Degree Days 18 (Base 50)    
Moisture  
Dew Point 52 °F    
Average Humidity 56    
Maximum Humidity 69    
Minimum Humidity 43    
Precipitation  
Precipitation 0.00 in 0.08 in 0.78 in (1967)
Month to date precipitation 4.45 2.36  
Year to date precipitation 29.01 33.23  
Sea Level Pressure  
Sea Level Pressure 29.93 in    
Wind  
Wind Speed 11 mph (SSW)    
Max Wind Speed 20 mph    
Max Gust Speed 30 mph    
Visibility 10 miles    
Events      
T = Trace of Precipitation, MM = Missing Value Source: NWS Daily Summary

Daily Weather History Graph

Daily Weather History Graph

Search for Another Location

Airport or City:

Trip Planner

Search our weather history database for the weather conditions in past years. The results will help you decide how hot, cold, wet, or windy it might be!

Date:

Astronomy

Oct. 25, 2012 Rise Set
Actual Time 8:03 AM EDT 6:46 PM EDT
Civil Twilight 7:35 AM EDT 7:14 PM EDT
Nautical Twilight 7:04 AM EDT 7:46 PM EDT
Astronomical Twilight 6:32 AM EDT 8:18 PM EDT
Moon 4:33 PM EDT (10/25) 3:59 AM EDT (10/25)
Length of Visible Light 11h 38m
Length of Day
10h 43m
Waxing Gibbous, 84% of the Moon is Illuminated
Oct 25
Waxing Gibbous
Oct 29
Full
Nov 6
Last Quarter
Nov 13
New
Nov 20
First Quarter

Hourly Weather History & Observations

Time (EDT) Temp. Dew Point Humidity Pressure Visibility Wind Dir Wind Speed Gust Speed Precip Events Conditions
12:53 AM 64.9 °F 52.0 °F 63% 29.98 in 10.0 mi SSW 6.9 mph - N/A   Clear
1:53 AM 64.0 °F 51.1 °F 63% 29.98 in 10.0 mi SSW 8.1 mph - N/A   Clear
2:53 AM 63.0 °F 51.1 °F 65% 29.96 in 10.0 mi SSW 9.2 mph - N/A   Clear
3:53 AM 63.0 °F 51.1 °F 65% 29.95 in 10.0 mi SSW 8.1 mph - N/A   Clear
4:53 AM 62.1 °F 51.1 °F 67% 29.95 in 10.0 mi South 8.1 mph - N/A   Clear
5:53 AM 61.0 °F 50.0 °F 67% 29.96 in 10.0 mi SSW 8.1 mph - N/A   Clear
6:53 AM 61.0 °F 50.0 °F 67% 29.96 in 10.0 mi South 6.9 mph - N/A   Clear
7:53 AM 60.1 °F 50.0 °F 69% 29.97 in 10.0 mi South 8.1 mph - N/A   Clear
8:53 AM 61.0 °F 50.0 °F 67% 29.99 in 10.0 mi South 8.1 mph - N/A   Clear
9:53 AM 64.0 °F 51.1 °F 63% 30.00 in 10.0 mi South 9.2 mph - N/A   Clear
10:53 AM 68.0 °F 52.0 °F 56% 29.99 in 10.0 mi SSW 9.2 mph 18.4 mph N/A   Clear
11:53 AM 71.1 °F 54.0 °F 55% 29.97 in 10.0 mi South 13.8 mph 19.6 mph N/A   Clear
12:53 PM 73.0 °F 54.0 °F 51% 29.95 in 10.0 mi SSW 16.1 mph 24.2 mph N/A   Clear
1:53 PM 73.9 °F 54.0 °F 50% 29.92 in 10.0 mi SW 12.7 mph 27.6 mph N/A   Clear
2:53 PM 75.0 °F 54.0 °F 48% 29.90 in 10.0 mi South 16.1 mph 24.2 mph N/A   Clear
3:53 PM 75.9 °F 54.0 °F 46% 29.88 in 10.0 mi South 17.3 mph 24.2 mph N/A   Partly Cloudy
4:53 PM 75.0 °F 52.0 °F 44% 29.87 in 10.0 mi SSW 16.1 mph 26.5 mph N/A   Clear
5:53 PM 75.0 °F 53.1 °F 46% 29.87 in 10.0 mi SSW 12.7 mph - N/A   Clear
6:53 PM 73.0 °F 53.1 °F 49% 29.87 in 10.0 mi South 13.8 mph 21.9 mph N/A   Clear
7:53 PM 71.1 °F 53.1 °F 53% 29.89 in 10.0 mi SSW 8.1 mph - N/A   Clear
8:53 PM 69.1 °F 52.0 °F 54% 29.89 in 10.0 mi South 9.2 mph - N/A   Clear
9:53 PM 69.1 °F 52.0 °F 54% 29.88 in 10.0 mi South 9.2 mph - N/A   Clear
10:53 PM 68.0 °F 52.0 °F 56% 29.89 in 10.0 mi SSW 10.4 mph - N/A   Clear
11:53 PM 66.9 °F 52.0 °F 59% 29.89 in 10.0 mi South 11.5 mph 18.4 mph N/A   Overcast